Regional Weather Roundup
Issued by NWS

Home | Current Version | Previous Version | Graphics & Text | Print | Product List | Glossary On
Versions: 1 2 3 4 5 6 7 8 9 10 11 12 13 14 15 16 17 18 19 20 21 22 23 24 25 26 27 28 29 30 31 32 33 34 35 36 37 38 39 40 41 42 43 44 45 46 47 48 49 50
000
ASUS43 KOAX 082102
RWRNE

WEATHER ROUNDUP FOR NEBRASKA
NATIONAL WEATHER SERVICE OMAHA NE
300 PM CST THU DEC 08 2016

NOTES: SATELLITE DATA IS BEING USED TO AUGMENT CLOUD COVER ABOVE
       12000 FEET.
       "FAIR" INDICATES FEW OR NO CLOUDS BELOW 12,000 FEET WITH NO
       SIGNIFICANT WEATHER AND/OR OBSTRUCTIONS TO VISIBILITY.

  * THESE STATIONS DO NOT REPORT WEATHER SUCH AS RAIN...SNOW OR FOG.

NEZ001>004-019>022-054>056-082200-
NEBRASKA PANHANDLE

CITY           SKY/WX    TMP DP  RH WIND       PRES   REMARKS
SCOTTSBLUFF    SUNNY     17  -2  43 E7        30.41F WCI   8
ALLIANCE       SUNNY     17  -1  45 W5        30.42F WCI  10
CHADRON        SUNNY     16  -2  45 NE7       30.48F WCI   6
SIDNEY         MOSUNNY   16   5  62 S7        30.41F WCI   6
$$

NEZ057>060-069>072-079>082-082200-
SOUTHWEST NEBRASKA

CITY           SKY/WX    TMP DP  RH WIND       PRES   REMARKS
NORTH PLATTE   SUNNY     22  -2  35 N7        30.54F WCI  13
IMPERIAL       SUNNY     17   1  49 N3        30.51F
MCCOOK         SUNNY     17   4  56 CALM      30.58F
$$

NEZ005>010-023>029-035>040-094-082200-
NORTH CENTRAL NEBRASKA

CITY           SKY/WX    TMP DP  RH WIND       PRES   REMARKS
VALENTINE      SUNNY     15  -3  44 NW13      30.56S WCI   1
BROKEN BOW     SUNNY     22   0  38 NW9       30.55F WCI  12
ORD            SUNNY     22  -1  36 NW12      30.57S WCI  10
$$

NEZ041-046>049-061>064-073>077-083>087-082200-
SOUTH CENTRAL NEBRASKA

CITY           SKY/WX    TMP DP  RH WIND       PRES   REMARKS
GRAND ISLAND   SUNNY     23   5  46 NW13      30.60S WCI  11
HASTINGS       SUNNY     24   4  42 NW15      30.60S WCI  11
KEARNEY *      SUNNY     25   1  36 NW9       30.59S WCI  15
$$

NEZ011>018-030>034-042>045-082200-
NORTHEAST NEBRASKA

CITY           SKY/WX    TMP DP  RH WIND       PRES   REMARKS
TEKAMAH        SUNNY     25   9  50 NW20      30.59S WCI  11
$$

NEZ050>053-065>068-078-088>093-082200-
SOUTHEAST NEBRASKA

CITY           SKY/WX    TMP DP  RH WIND       PRES   REMARKS
LINCOLN        SUNNY     27   8  44 N14       30.62S WCI  16
OMAHA EPPLEY   MOSUNNY   25   8  48 NW15      30.60R WCI  13
FALLS CITY     SUNNY     25   9  50 NW15      30.61S WCI  13
$$

NEZ044-045-051>053-067-082200-
OMAHA AREA

CITY           SKY/WX    TMP DP  RH WIND       PRES   REMARKS
OMAHA EPPLEY   MOSUNNY   25   8  48 NW15      30.60R WCI  13
OFFUTT AFB     SUNNY     25   8  49 NW16      30.60R WCI  12
$$



USA.gov is the U.S. government's official web portal to all federal, state and local government web resources and services.